| time (UTC) | temp F | wind direction | speed knots | gust knots | rain 1hr in | rain 24hr in | rain mn in | humidity % | barometer mb |
| 20260902063058 | 60 | 166 | 1.7 | 6.1 | 0.00 | 0.00 | 0.00 | 87 | 1009.3 |
| 20260902062546 | 60 | 0 | 3.5 | 7.8 | 0.00 | 0.00 | 0.00 | 87 | 1009.3 |
| 20260902062047 | 60 | 159 | 1.7 | 7.8 | 0.00 | 0.00 | 0.00 | 86 | 1009.4 |
| 20260902061624 | 60 | 140 | 0.9 | 7.8 | 0.00 | 0.00 | 0.00 | 86 | 1009.5 |
| 20260902061047 | 60 | 150 | 1.7 | 12.2 | 0.00 | 0.00 | 0.00 | 86 | 1009.5 |
| 20260902060547 | 60 | 164 | 2.6 | 13.0 | 0.00 | 0.00 | 0.00 | 85 | 1009.5 |
| 20260902060106 | 60 | 170 | 4.3 | 13.0 | 0.00 | 0.00 | 0.00 | 85 | 1009.5 |
| 20260902055547 | 60 | 134 | 1.7 | 9.6 | 0.00 | 0.00 | 0.00 | 85 | 1009.5 |
| 20260902055046 | 60 | 155 | 2.6 | 7.8 | 0.00 | 0.00 | 0.00 | 85 | 1009.5 |
| 20260902054606 | 61 | 159 | 0.9 | 7.8 | 0.00 | 0.00 | 0.00 | 84 | 1009.5 |
| 20260902054044 | 61 | 148 | 2.6 | 7.8 | 0.00 | 0.00 | 0.00 | 84 | 1009.6 |
| 20260902053547 | 61 | 169 | 2.6 | 8.7 | 0.00 | 0.00 | 0.00 | 83 | 1009.6 |
| 20260902053104 | 61 | 0 | 0.9 | 11.3 | 0.00 | 0.00 | 0.00 | 83 | 1009.6 |
| 20260902052546 | 61 | 160 | 2.6 | 11.3 | 0.00 | 0.00 | 0.00 | 82 | 1009.7 |
| 20260902052044 | 62 | 173 | 4.3 | 9.6 | 0.00 | 0.00 | 0.00 | 82 | 1009.6 |
| 20260902051559 | 62 | 141 | 4.3 | 8.7 | 0.00 | 0.00 | 0.00 | 82 | 1009.7 |
| 20260902051046 | 62 | 134 | 3.5 | 8.7 | 0.00 | 0.00 | 0.00 | 82 | 1009.6 |
| 20260902050544 | 62 | 154 | 4.3 | 9.6 | 0.00 | 0.00 | 0.00 | 82 | 1009.6 |
| 20260902050106 | 62 | 167 | 3.5 | 9.6 | 0.00 | 0.00 | 0.00 | 82 | 1009.7 |
| 20260902045549 | 62 | 140 | 3.5 | 8.7 | 0.00 | 0.00 | 0.00 | 82 | 1009.6 |
| 20260902045046 | 62 | 140 | 0.0 | 7.0 | 0.00 | 0.00 | 0.00 | 82 | 1009.6 |
| 20260902044608 | 62 | 0 | 0.9 | 7.0 | 0.00 | 0.00 | 0.00 | 81 | 1009.6 |
| 20260902044046 | 62 | 129 | 2.6 | 7.0 | 0.00 | 0.00 | 0.00 | 81 | 1009.6 |
| 20260902043546 | 62 | 172 | 0.0 | 7.0 | 0.00 | 0.00 | 0.00 | 82 | 1009.5 |
| 20260902043103 | 62 | 172 | 2.6 | 7.8 | 0.00 | 0.00 | 0.00 | 81 | 1009.6 |
| 20260902042546 | 62 | 160 | 0.0 | 8.7 | 0.00 | 0.00 | 0.00 | 82 | 1009.6 |
| 20260902042047 | 62 | 160 | 2.6 | 8.7 | 0.00 | 0.00 | 0.00 | 81 | 1009.6 |
| 20260902041609 | 62 | 130 | 2.6 | 11.3 | 0.00 | 0.00 | 0.00 | 81 | 1009.6 |
| 20260902041046 | 62 | 147 | 2.6 | 11.3 | 0.00 | 0.00 | 0.00 | 81 | 1009.5 |
| 20260902040546 | 62 | 172 | 3.5 | 9.6 | 0.00 | 0.00 | 0.00 | 81 | 1009.5 |
| 20260902035546 | 63 | 157 | 3.5 | 9.6 | 0.00 | 0.00 | 0.00 | 81 | 1009.5 |
| 20260902035047 | 63 | 146 | 2.6 | 7.8 | 0.00 | 0.00 | 0.00 | 81 | 1009.5 |
| 20260902034604 | 63 | 148 | 1.7 | 7.8 | 0.00 | 0.00 | 0.00 | 81 | 1009.5 |
| 20260902034046 | 63 | 160 | 2.6 | 7.8 | 0.00 | 0.00 | 0.00 | 81 | 1009.5 |
| 20260902033546 | 63 | 152 | 3.5 | 8.7 | 0.00 | 0.00 | 0.00 | 81 | 1009.4 |
| 20260902033110 | 63 | 155 | 2.6 | 8.7 | 0.00 | 0.00 | 0.00 | 80 | 1009.4 |
| 20260902032547 | 63 | 193 | 2.6 | 7.8 | 0.00 | 0.00 | 0.00 | 80 | 1009.4 |
| 20260902032046 | 63 | 136 | 2.6 | 7.8 | 0.00 | 0.00 | 0.00 | 80 | 1009.3 |
| 20260902031559 | 63 | 0 | 1.7 | 7.8 | 0.00 | 0.00 | 0.00 | 80 | 1009.3 |
| 20260902031045 | 63 | 157 | 1.7 | 7.8 | 0.00 | 0.00 | 0.00 | 80 | 1009.4 |
| 20260902030548 | 63 | 136 | 2.6 | 8.7 | 0.00 | 0.00 | 0.00 | 80 | 1009.3 |
| 20260902030114 | 64 | 161 | 4.3 | 8.7 | 0.00 | 0.00 | 0.00 | 79 | 1009.3 |
| 20260902025545 | 64 | 164 | 2.6 | 7.8 | 0.00 | 0.00 | 0.00 | 79 | 1009.3 |
| 20260902025049 | 64 | 0 | 1.7 | 7.0 | 0.00 | 0.00 | 0.00 | 79 | 1009.1 |
| 20260902024600 | 64 | 157 | 1.7 | 6.1 | 0.00 | 0.00 | 0.00 | 79 | 1009.2 |
| 20260902024046 | 64 | 0 | 2.6 | 6.1 | 0.00 | 0.00 | 0.00 | 78 | 1009.1 |
| 20260902023546 | 64 | 0 | 0.9 | 5.2 | 0.00 | 0.00 | 0.00 | 78 | 1009.2 |
| 20260902023112 | 64 | 0 | 1.7 | 7.0 | 0.00 | 0.00 | 0.00 | 78 | 1009.1 |
| 20260902022546 | 64 | 0 | 0.9 | 7.0 | 0.00 | 0.00 | 0.00 | 78 | 1009.1 |
| 20260902022047 | 64 | 170 | 0.0 | 7.0 | 0.00 | 0.00 | 0.00 | 78 | 1009.1 |
| 20260902021613 | 64 | 148 | 1.7 | 7.0 | 0.00 | 0.00 | 0.00 | 77 | 1009.1 |
| 20260902021046 | 65 | 161 | 1.7 | 7.0 | 0.00 | 0.00 | 0.00 | 77 | 1009.2 |
| 20260902020548 | 65 | 0 | 2.6 | 9.6 | 0.00 | 0.00 | 0.00 | 77 | 1009.2 |
| 20260902015545 | 65 | 167 | 2.6 | 11.3 | 0.00 | 0.00 | 0.00 | 77 | 1009.3 |
| 20260902015047 | 65 | 153 | 4.3 | 11.3 | 0.00 | 0.00 | 0.00 | 76 | 1009.3 |
| 20260902014557 | 65 | 172 | 3.5 | 11.3 | 0.00 | 0.00 | 0.00 | 76 | 1009.3 |
| 20260902014046 | 66 | 156 | 0.9 | 7.8 | 0.00 | 0.00 | 0.00 | 76 | 1009.3 |
| 20260902013546 | 66 | 0 | 2.6 | 7.8 | 0.00 | 0.00 | 0.00 | 76 | 1009.3 |
| 20260902013057 | 66 | 179 | 1.7 | 9.6 | 0.00 | 0.00 | 0.00 | 76 | 1009.3 |
| 20260902012546 | 66 | 0 | 3.5 | 9.6 | 0.00 | 0.00 | 0.00 | 76 | 1009.2 |
| 20260902012050 | 66 | 165 | 3.5 | 8.7 | 0.00 | 0.00 | 0.00 | 76 | 1009.3 |
| 20260902011558 | 66 | 0 | 1.7 | 8.7 | 0.00 | 0.00 | 0.00 | 75 | 1009.2 |
| 20260902011046 | 66 | 114 | 2.6 | 8.7 | 0.00 | 0.00 | 0.00 | 75 | 1009.2 |
| 20260902010543 | 66 | 174 | 2.6 | 6.1 | 0.00 | 0.00 | 0.00 | 75 | 1009.3 |
| 20260902005551 | 66 | 153 | 0.9 | 7.0 | 0.00 | 0.00 | 0.00 | 76 | 1009.2 |
| 20260902005047 | 66 | 167 | 1.7 | 7.0 | 0.00 | 0.00 | 0.00 | 75 | 1009.1 |
| 20260902004602 | 67 | 0 | 0.0 | 7.0 | 0.00 | 0.00 | 0.00 | 76 | 1009.2 |
| 20260902004049 | 67 | 155 | 1.7 | 7.8 | 0.00 | 0.00 | 0.00 | 75 | 1009.2 |
| 20260902003547 | 67 | 149 | 2.6 | 8.7 | 0.00 | 0.00 | 0.00 | 74 | 1009.2 |
| 20260902003106 | 67 | 165 | 1.7 | 8.7 | 0.00 | 0.00 | 0.00 | 74 | 1009.2 |
| 20260902002547 | 67 | 148 | 2.6 | 10.4 | 0.00 | 0.00 | 0.00 | 74 | 1009.2 |
| 20260902002045 | 67 | 163 | 3.5 | 10.4 | 0.00 | 0.00 | 0.00 | 75 | 1009.1 |
| 20260902001600 | 67 | 149 | 3.5 | 9.6 | 0.00 | 0.00 | 0.00 | 75 | 1009.2 |
| 20260902001046 | 66 | 160 | 2.6 | 9.6 | 0.00 | 0.00 | 0.00 | 76 | 1009.1 |
| 20260902000546 | 66 | 148 | 1.7 | 9.6 | 0.00 | 0.00 | 0.00 | 76 | 1009.1 |
| 20260902000103 | 66 | 159 | 4.3 | 9.6 | 0.00 | 0.00 | 0.00 | 76 | 1009.2 |
| 20260901235547 | 65 | 165 | 3.5 | 8.7 | 0.00 | 0.00 | 0.00 | 77 | 1009.1 |
| 20260901235046 | 65 | 128 | 1.7 | 7.8 | 0.00 | 0.00 | 0.00 | 77 | 1009.2 |
| 20260901234615 | 65 | 146 | 1.7 | 7.8 | 0.00 | 0.00 | 0.00 | 78 | 1009.2 |
| 20260901234047 | 65 | 172 | 0.9 | 6.1 | 0.00 | 0.00 | 0.00 | 78 | 1009.2 |
| 20260901233546 | 65 | 164 | 1.7 | 6.1 | 0.00 | 0.00 | 0.00 | 77 | 1009.2 |
| 20260901233104 | 65 | 0 | 0.0 | 6.1 | 0.00 | 0.00 | 0.00 | 78 | 1009.2 |
| 20260901232547 | 65 | 165 | 1.7 | 6.1 | 0.00 | 0.00 | 0.00 | 77 | 1009.2 |
| 20260901232046 | 65 | 161 | 0.0 | 1.7 | 0.00 | 0.00 | 0.00 | 78 | 1009.2 |
| 20260901231558 | 65 | 0 | 0.0 | 5.2 | 0.00 | 0.00 | 0.00 | 78 | 1009.2 |
| 20260901231046 | 66 | 0 | 0.0 | 7.0 | 0.00 | 0.00 | 0.00 | 76 | 1009.2 |
| 20260901230544 | 66 | 161 | 0.0 | 7.8 | 0.00 | 0.00 | 0.00 | 76 | 1009.1 |
| 20260901230137 | 66 | 161 | 1.7 | 7.8 | 0.00 | 0.00 | 0.00 | 75 | 1009.1 |
| 20260901225546 | 66 | 171 | 0.9 | 7.8 | 0.00 | 0.00 | 0.00 | 75 | 1009.1 |
| 20260901225046 | 66 | 171 | 0.9 | 7.8 | 0.00 | 0.00 | 0.00 | 75 | 1009.2 |
| 20260901224602 | 66 | 159 | 0.9 | 7.8 | 0.00 | 0.00 | 0.00 | 75 | 1009.1 |
| 20260901224045 | 67 | 0 | 0.0 | 3.5 | 0.00 | 0.00 | 0.00 | 74 | 1009.1 |
| 20260901223548 | 67 | 0 | 0.0 | 4.3 | 0.00 | 0.00 | 0.00 | 74 | 1009.1 |
| 20260901223112 | 67 | 173 | 0.9 | 7.0 | 0.00 | 0.00 | 0.00 | 73 | 1009.1 |
| 20260901222548 | 67 | 174 | 0.9 | 7.0 | 0.00 | 0.00 | 0.00 | 73 | 1009.1 |
| 20260901222044 | 67 | 0 | 0.9 | 8.7 | 0.00 | 0.00 | 0.00 | 73 | 1009.1 |
| 20260901221559 | 67 | 202 | 3.5 | 8.7 | 0.00 | 0.00 | 0.00 | 72 | 1009.1 |
| 20260901221046 | 68 | 129 | 3.5 | 8.7 | 0.00 | 0.00 | 0.00 | 71 | 1009.1 |
| 20260901220547 | 68 | 179 | 1.7 | 10.4 | 0.00 | 0.00 | 0.00 | 71 | 1009.1 |
| 20260901220104 | 69 | 145 | 5.2 | 10.4 | 0.00 | 0.00 | 0.00 | 70 | 1009.1 |
| 20260901215544 | 69 | 184 | 3.5 | 9.6 | 0.00 | 0.00 | 0.00 | 70 | 1009.1 |
| 20260901215047 | 69 | 126 | 4.3 | 11.3 | 0.00 | 0.00 | 0.00 | 70 | 1009.2 |
| 20260901214559 | 68 | 150 | 3.5 | 11.3 | 0.00 | 0.00 | 0.00 | 71 | 1009.2 |
| 20260901214046 | 69 | 163 | 2.6 | 9.6 | 0.00 | 0.00 | 0.00 | 70 | 1009.2 |
| 20260901213544 | 68 | 0 | 1.7 | 8.7 | 0.00 | 0.00 | 0.00 | 71 | 1009.2 |
| 20260901213100 | 68 | 203 | 2.6 | 9.6 | 0.00 | 0.00 | 0.00 | 71 | 1009.2 |
| 20260901212546 | 68 | 169 | 2.6 | 9.6 | 0.00 | 0.00 | 0.00 | 71 | 1009.2 |
| 20260901212046 | 68 | 158 | 3.5 | 9.6 | 0.00 | 0.00 | 0.00 | 71 | 1009.4 |
| 20260901211558 | 69 | 175 | 3.5 | 9.6 | 0.00 | 0.00 | 0.00 | 70 | 1009.5 |
| 20260901211045 | 69 | 171 | 2.6 | 8.7 | 0.00 | 0.00 | 0.00 | 71 | 1009.5 |
| 20260901210543 | 69 | 184 | 0.0 | 7.8 | 0.00 | 0.00 | 0.00 | 72 | 1009.6 |
| 20260901210105 | 68 | 144 | 3.5 | 7.8 | 0.00 | 0.00 | 0.00 | 71 | 1009.6 |
| 20260901205550 | 67 | 161 | 3.5 | 7.0 | 0.00 | 0.00 | 0.00 | 72 | 1009.9 |
| 20260901205046 | 68 | 157 | 2.6 | 7.8 | 0.00 | 0.00 | 0.00 | 71 | 1009.9 |
| 20260901204601 | 68 | 211 | 3.5 | 8.7 | 0.00 | 0.00 | 0.00 | 73 | 1009.8 |
| 20260901204046 | 67 | 128 | 1.7 | 9.6 | 0.00 | 0.00 | 0.00 | 73 | 1009.9 |
| 20260901203546 | 66 | 0 | 3.5 | 9.6 | 0.00 | 0.00 | 0.00 | 74 | 1009.9 |
| 20260901203120 | 66 | 172 | 2.6 | 9.6 | 0.00 | 0.00 | 0.00 | 73 | 1009.9 |
| 20260901202547 | 66 | 153 | 2.6 | 12.2 | 0.00 | 0.00 | 0.00 | 74 | 1009.9 |
| 20260901202047 | 66 | 155 | 4.3 | 12.2 | 0.00 | 0.00 | 0.00 | 74 | 1010.0 |
| 20260901201602 | 66 | 188 | 5.2 | 12.2 | 0.00 | 0.00 | 0.00 | 74 | 1010.1 |
| 20260901201046 | 66 | 157 | 4.3 | 12.2 | 0.00 | 0.00 | 0.00 | 75 | 1010.1 |
| 20260901200545 | 66 | 153 | 4.3 | 12.2 | 0.00 | 0.00 | 0.00 | 74 | 1010.1 |
| 20260901200105 | 65 | 167 | 4.3 | 9.6 | 0.00 | 0.00 | 0.00 | 75 | 1010.0 |
| 20260901195547 | 65 | 156 | 1.7 | 7.8 | 0.00 | 0.00 | 0.00 | 77 | 1010.1 |
| 20260901195047 | 64 | 176 | 2.6 | 7.8 | 0.00 | 0.00 | 0.00 | 77 | 1010.0 |
| 20260901194605 | 64 | 269 | 3.5 | 8.7 | 0.00 | 0.00 | 0.00 | 76 | 1010.1 |
| 20260901194046 | 65 | 178 | 4.3 | 8.7 | 0.00 | 0.00 | 0.00 | 77 | 1010.0 |
| 20260901193547 | 65 | 165 | 2.6 | 7.8 | 0.00 | 0.00 | 0.00 | 77 | 1010.0 |
| 20260901193059 | 64 | 209 | 2.6 | 11.3 | 0.00 | 0.00 | 0.00 | 78 | 1010.0 |
| 20260901192546 | 64 | 183 | 2.6 | 11.3 | 0.00 | 0.00 | 0.00 | 79 | 1010.0 |
| 20260901192051 | 64 | 153 | 5.2 | 9.6 | 0.00 | 0.00 | 0.00 | 79 | 1010.1 |
| 20260901191603 | 65 | 175 | 2.6 | 8.7 | 0.00 | 0.00 | 0.00 | 79 | 1010.0 |
| 20260901191046 | 64 | 236 | 2.6 | 10.4 | 0.00 | 0.00 | 0.00 | 79 | 1010.1 |
| 20260901190546 | 65 | 203 | 3.5 | 11.3 | 0.00 | 0.00 | 0.00 | 78 | 1010.0 |
| 20260901190110 | 65 | 178 | 2.6 | 11.3 | 0.00 | 0.00 | 0.00 | 78 | 1010.0 |
| 20260901185546 | 65 | 198 | 4.3 | 9.6 | 0.00 | 0.00 | 0.00 | 77 | 1009.9 |
| 20260901185050 | 65 | 220 | 0.9 | 7.8 | 0.00 | 0.00 | 0.00 | 77 | 1009.8 |
| 20260901184558 | 64 | 192 | 3.5 | 8.7 | 0.00 | 0.00 | 0.00 | 77 | 1009.8 |
| 20260901184046 | 65 | 163 | 3.5 | 8.7 | 0.00 | 0.00 | 0.00 | 76 | 1009.8 |
| 20260901183550 | 64 | 168 | 2.6 | 7.8 | 0.00 | 0.00 | 0.00 | 80 | 1009.9 |
| 20260901183110 | 64 | 199 | 2.6 | 6.1 | 0.00 | 0.00 | 0.00 | 79 | 1009.9 |
| 20260901182546 | 64 | 190 | 2.6 | 7.0 | 0.00 | 0.00 | 0.00 | 79 | 1009.8 |
| 20260901182046 | 63 | 205 | 2.6 | 7.0 | 0.00 | 0.00 | 0.00 | 81 | 1009.9 |
| 20260901181604 | 64 | 192 | 2.6 | 7.8 | 0.00 | 0.00 | 0.00 | 79 | 1009.8 |
| 20260901181046 | 64 | 180 | 0.9 | 7.8 | 0.00 | 0.00 | 0.00 | 79 | 1009.8 |
| 20260901180546 | 64 | 183 | 1.7 | 7.8 | 0.00 | 0.00 | 0.00 | 79 | 1009.8 |
| 20260901180104 | 65 | 141 | 1.7 | 9.6 | 0.00 | 0.00 | 0.00 | 78 | 1009.8 |
| 20260901175546 | 64 | 167 | 3.5 | 9.6 | 0.00 | 0.00 | 0.00 | 78 | 1009.7 |
| 20260901175046 | 64 | 167 | 3.5 | 7.8 | 0.00 | 0.00 | 0.00 | 78 | 1009.8 |
| 20260901174600 | 63 | 186 | 2.6 | 10.4 | 0.00 | 0.00 | 0.00 | 80 | 1009.8 |
| 20260901174045 | 63 | 0 | 1.7 | 10.4 | 0.00 | 0.00 | 0.00 | 81 | 1009.8 |
| 20260901173547 | 63 | 154 | 4.3 | 8.7 | 0.00 | 0.00 | 0.00 | 81 | 1009.7 |
| 20260901173112 | 62 | 133 | 2.6 | 7.8 | 0.00 | 0.00 | 0.00 | 81 | 1009.8 |
| 20260901172547 | 63 | 168 | 2.6 | 8.7 | 0.00 | 0.00 | 0.00 | 82 | 1009.7 |
| 20260901172046 | 62 | 142 | 1.7 | 8.7 | 0.00 | 0.00 | 0.00 | 83 | 1009.7 |
| 20260901171601 | 62 | 165 | 1.7 | 7.8 | 0.00 | 0.00 | 0.00 | 83 | 1009.8 |
| 20260901171050 | 61 | 169 | 2.6 | 6.1 | 0.00 | 0.00 | 0.00 | 84 | 1009.8 |
| 20260901170547 | 61 | 155 | 2.6 | 7.0 | 0.00 | 0.00 | 0.00 | 84 | 1009.7 |
| 20260901170104 | 61 | 153 | 2.6 | 7.0 | 0.00 | 0.00 | 0.00 | 85 | 1009.7 |
| 20260901165546 | 61 | 174 | 2.6 | 7.8 | 0.00 | 0.00 | 0.00 | 85 | 1009.7 |
| 20260901165046 | 61 | 202 | 4.3 | 7.8 | 0.00 | 0.00 | 0.00 | 85 | 1009.7 |
| 20260901164635 | 60 | 169 | 3.5 | 6.1 | 0.00 | 0.00 | 0.00 | 85 | 1009.8 |
| 20260901164046 | 60 | 213 | 2.6 | 10.4 | 0.00 | 0.00 | 0.00 | 85 | 1009.8 |
| 20260901163546 | 60 | 163 | 5.2 | 10.4 | 0.00 | 0.00 | 0.00 | 85 | 1009.7 |
| 20260901163059 | 61 | 164 | 1.7 | 8.7 | 0.00 | 0.00 | 0.00 | 86 | 1009.8 |
| 20260901162546 | 60 | 134 | 1.7 | 8.7 | 0.00 | 0.00 | 0.00 | 87 | 1009.8 |
| 20260901162044 | 60 | 157 | 3.5 | 8.7 | 0.00 | 0.00 | 0.00 | 87 | 1009.8 |
| 20260901161606 | 60 | 155 | 2.6 | 8.7 | 0.00 | 0.00 | 0.00 | 87 | 1009.8 |
| 20260901161046 | 59 | 167 | 3.5 | 8.7 | 0.00 | 0.00 | 0.00 | 88 | 1009.8 |
| 20260901160546 | 59 | 169 | 2.6 | 8.7 | 0.00 | 0.00 | 0.00 | 90 | 1009.8 |
| 20260901155546 | 58 | 156 | 3.5 | 8.7 | 0.00 | 0.00 | 0.00 | 92 | 1009.9 |
| 20260901155044 | 58 | 213 | 1.7 | 9.6 | 0.00 | 0.00 | 0.00 | 92 | 1010.0 |
| 20260901154559 | 58 | 160 | 4.3 | 9.6 | 0.00 | 0.00 | 0.00 | 93 | 1010.0 |
| 20260901154048 | 57 | 164 | 3.5 | 7.8 | 0.00 | 0.00 | 0.00 | 94 | 1010.1 |
| 20260901153547 | 57 | 159 | 3.5 | 7.8 | 0.00 | 0.00 | 0.00 | 95 | 1010.0 |
| 20260901153102 | 56 | 148 | 2.6 | 7.0 | 0.00 | 0.00 | 0.00 | 95 | 1010.0 |
| 20260901152546 | 56 | 150 | 1.7 | 5.2 | 0.00 | 0.00 | 0.00 | 96 | 1010.0 |
| 20260901152046 | 56 | 0 | 1.7 | 5.2 | 0.00 | 0.00 | 0.00 | 96 | 1010.0 |
| 20260901151600 | 56 | 169 | 0.0 | 5.2 | 0.00 | 0.00 | 0.00 | 96 | 1010.0 |
| 20260901151047 | 56 | 169 | 0.9 | 5.2 | 0.00 | 0.00 | 0.00 | 96 | 1010.0 |
| 20260901150546 | 55 | 181 | 0.9 | 4.3 | 0.00 | 0.00 | 0.00 | 97 | 1010.0 |
| 20260901150103 | 55 | 0 | 1.7 | 4.3 | 0.00 | 0.00 | 0.00 | 97 | 1009.9 |
| 20260901145548 | 55 | 248 | 0.0 | 1.7 | 0.00 | 0.00 | 0.00 | 97 | 1009.9 |
| 20260901145046 | 54 | 0 | 0.0 | 2.6 | 0.00 | 0.00 | 0.00 | 97 | 1009.8 |
| 20260901144603 | 54 | 0 | 0.0 | 2.6 | 0.00 | 0.00 | 0.00 | 97 | 1009.9 |
| 20260901144045 | 53 | 0 | 0.0 | 0.9 | 0.00 | 0.00 | 0.00 | 96 | 1009.7 |
| 20260901143547 | 53 | 0 | 0.0 | 0.9 | 0.00 | 0.00 | 0.00 | 96 | 1009.7 |
| 20260901143102 | 53 | 0 | 0.0 | 0.9 | 0.00 | 0.00 | 0.00 | 96 | 1009.7 |
| 20260901142549 | 53 | 0 | 0.0 | 0.9 | 0.00 | 0.00 | 0.00 | 96 | 1009.8 |
| 20260901142050 | 53 | 307 | 0.0 | 0.9 | 0.00 | 0.00 | 0.00 | 96 | 1009.6 |
| 20260901141610 | 53 | 0 | 0.0 | 0.0 | 0.00 | 0.00 | 0.00 | 96 | 1009.6 |
| 20260901141046 | 53 | 0 | 0.0 | 0.0 | 0.00 | 0.00 | 0.00 | 96 | 1009.6 |
| 20260901140543 | 53 | 0 | 0.0 | 0.0 | 0.00 | 0.00 | 0.00 | 96 | 1009.6 |
| 20260901140103 | 53 | 0 | 0.0 | 0.0 | 0.00 | 0.00 | 0.00 | 96 | 1009.6 |
| 20260901135549 | 53 | 0 | 0.0 | 0.9 | 0.00 | 0.00 | 0.00 | 96 | 1009.5 |
| 20260901135047 | 53 | 0 | 0.0 | 0.9 | 0.00 | 0.00 | 0.00 | 96 | 1009.4 |
| 20260901134603 | 53 | 0 | 0.0 | 0.9 | 0.00 | 0.00 | 0.00 | 96 | 1009.4 |
| 20260901134046 | 53 | 0 | 0.0 | 0.9 | 0.00 | 0.00 | 0.00 | 96 | 1009.4 |
| 20260901133546 | 53 | 0 | 0.0 | 0.9 | 0.00 | 0.00 | 0.00 | 97 | 1009.3 |
| 20260901133104 | 53 | 0 | 0.0 | 2.6 | 0.00 | 0.00 | 0.00 | 97 | 1009.3 |
| 20260901132549 | 53 | 0 | 0.0 | 2.6 | 0.00 | 0.00 | 0.00 | 96 | 1009.2 |
| 20260901132046 | 53 | 307 | 0.9 | 2.6 | 0.00 | 0.00 | 0.00 | 96 | 1009.2 |
| 20260901131611 | 52 | 308 | 0.0 | 2.6 | 0.00 | 0.00 | 0.00 | 96 | 1009.1 |
| 20260901131045 | 52 | 0 | 0.0 | 1.7 | 0.00 | 0.00 | 0.00 | 96 | 1009.1 |
| 20260901130547 | 52 | 0 | 0.0 | 0.0 | 0.00 | 0.00 | 0.00 | 96 | 1009.0 |
| 20260901125546 | 52 | 0 | 0.0 | 0.0 | 0.00 | 0.00 | 0.00 | 96 | 1008.9 |
| 20260901125047 | 51 | 0 | 0.0 | 0.0 | 0.00 | 0.00 | 0.00 | 96 | 1008.8 |
| 20260901124559 | 51 | 0 | 0.0 | 0.0 | 0.00 | 0.00 | 0.00 | 96 | 1008.7 |
| 20260901124044 | 51 | 0 | 0.0 | 0.0 | 0.00 | 0.00 | 0.00 | 96 | 1008.7 |
| 20260901123550 | 51 | 0 | 0.0 | 0.0 | 0.00 | 0.00 | 0.00 | 96 | 1008.6 |
| 20260901123106 | 51 | 0 | 0.0 | 0.0 | 0.00 | 0.00 | 0.00 | 96 | 1008.6 |
| 20260901122546 | 51 | 0 | 0.0 | 0.0 | 0.00 | 0.00 | 0.00 | 96 | 1008.5 |
| 20260901122047 | 51 | 0 | 0.0 | 0.0 | 0.00 | 0.00 | 0.00 | 96 | 1008.6 |
| 20260901121613 | 51 | 0 | 0.0 | 0.0 | 0.00 | 0.00 | 0.00 | 96 | 1008.6 |
| 20260901121044 | 51 | 0 | 0.0 | 0.0 | 0.00 | 0.00 | 0.00 | 95 | 1008.6 |
| 20260901120547 | 51 | 0 | 0.0 | 0.0 | 0.00 | 0.00 | 0.00 | 95 | 1008.6 |
| 20260901120124 | 51 | 0 | 0.0 | 0.0 | 0.00 | 0.00 | 0.00 | 95 | 1008.6 |
| 20260901115546 | 51 | 0 | 0.0 | 0.0 | 0.00 | 0.00 | 0.00 | 95 | 1008.6 |
| 20260901115046 | 51 | 0 | 0.0 | 0.0 | 0.00 | 0.00 | 0.00 | 95 | 1008.6 |
| 20260901114601 | 51 | 0 | 0.0 | 0.0 | 0.00 | 0.00 | 0.00 | 95 | 1008.6 |
| 20260901114046 | 51 | 0 | 0.0 | 0.0 | 0.00 | 0.00 | 0.00 | 95 | 1008.7 |
| 20260901113547 | 51 | 0 | 0.0 | 0.0 | 0.00 | 0.00 | 0.00 | 95 | 1008.8 |
| 20260901113104 | 51 | 0 | 0.0 | 0.0 | 0.00 | 0.00 | 0.00 | 95 | 1008.8 |
| 20260901112545 | 51 | 0 | 0.0 | 0.0 | 0.00 | 0.00 | 0.00 | 95 | 1008.9 |
| 20260901112047 | 51 | 0 | 0.0 | 0.0 | 0.00 | 0.00 | 0.00 | 95 | 1008.9 |
| 20260901111610 | 51 | 0 | 0.0 | 0.0 | 0.00 | 0.00 | 0.00 | 95 | 1009.0 |
| 20260901111048 | 51 | 0 | 0.0 | 0.0 | 0.00 | 0.00 | 0.00 | 95 | 1009.0 |
| 20260901110546 | 51 | 0 | 0.0 | 0.0 | 0.00 | 0.00 | 0.00 | 95 | 1008.9 |
| 20260901110100 | 51 | 0 | 0.0 | 0.0 | 0.00 | 0.00 | 0.00 | 95 | 1009.0 |
| 20260901105548 | 51 | 0 | 0.0 | 0.0 | 0.00 | 0.00 | 0.00 | 95 | 1008.8 |
| 20260901105047 | 51 | 0 | 0.0 | 0.0 | 0.00 | 0.00 | 0.00 | 95 | 1008.9 |
| 20260901104606 | 52 | 0 | 0.0 | 0.0 | 0.00 | 0.00 | 0.00 | 95 | 1008.8 |
| 20260901104046 | 52 | 0 | 0.0 | 0.0 | 0.00 | 0.00 | 0.00 | 95 | 1008.8 |
| 20260901103545 | 52 | 0 | 0.0 | 0.0 | 0.00 | 0.00 | 0.00 | 94 | 1008.8 |
| 20260901103124 | 52 | 0 | 0.0 | 0.0 | 0.00 | 0.00 | 0.00 | 94 | 1008.8 |
| 20260901102547 | 52 | 0 | 0.0 | 0.0 | 0.00 | 0.00 | 0.00 | 95 | 1008.8 |
| 20260901102047 | 52 | 0 | 0.0 | 0.0 | 0.00 | 0.00 | 0.00 | 95 | 1008.8 |
| 20260901101604 | 52 | 0 | 0.0 | 0.0 | 0.00 | 0.00 | 0.00 | 94 | 1008.9 |
| 20260901101045 | 52 | 0 | 0.0 | 0.0 | 0.00 | 0.00 | 0.00 | 94 | 1008.8 |
| 20260901100546 | 52 | 0 | 0.0 | 0.0 | 0.00 | 0.00 | 0.00 | 94 | 1008.8 |
| 20260901100106 | 52 | 0 | 0.0 | 0.0 | 0.00 | 0.00 | 0.00 | 94 | 1008.9 |
| 20260901095547 | 52 | 0 | 0.0 | 0.0 | 0.00 | 0.00 | 0.00 | 94 | 1008.8 |
| 20260901095046 | 52 | 0 | 0.0 | 0.0 | 0.00 | 0.00 | 0.00 | 94 | 1008.8 |
| 20260901094602 | 52 | 0 | 0.0 | 0.0 | 0.00 | 0.00 | 0.00 | 94 | 1008.8 |
| 20260901094043 | 52 | 0 | 0.0 | 0.0 | 0.00 | 0.00 | 0.00 | 94 | 1008.8 |
| 20260901093549 | 52 | 0 | 0.0 | 0.0 | 0.00 | 0.00 | 0.00 | 94 | 1008.7 |
| 20260901093128 | 52 | 0 | 0.0 | 0.0 | 0.00 | 0.00 | 0.00 | 94 | 1008.7 |
| 20260901092547 | 52 | 0 | 0.0 | 1.7 | 0.00 | 0.00 | 0.00 | 94 | 1008.7 |
| 20260901092047 | 52 | 0 | 0.0 | 1.7 | 0.00 | 0.00 | 0.00 | 94 | 1008.7 |
| 20260901091615 | 53 | 0 | 0.0 | 1.7 | 0.00 | 0.00 | 0.00 | 94 | 1008.7 |
| 20260901091049 | 52 | 0 | 0.0 | 0.0 | 0.00 | 0.00 | 0.00 | 93 | 1008.7 |
| 20260901090550 | 53 | 0 | 0.0 | 0.0 | 0.00 | 0.00 | 0.00 | 93 | 1008.6 |
| 20260901090108 | 53 | 0 | 0.0 | 0.0 | 0.00 | 0.00 | 0.00 | 93 | 1008.6 |
| 20260901085546 | 53 | 0 | 0.0 | 0.0 | 0.00 | 0.00 | 0.00 | 93 | 1008.7 |
| 20260901085046 | 53 | 0 | 0.0 | 0.0 | 0.00 | 0.00 | 0.00 | 93 | 1008.5 |
| 20260901084600 | 53 | 0 | 0.0 | 0.0 | 0.00 | 0.00 | 0.00 | 93 | 1008.6 |
| 20260901084047 | 53 | 0 | 0.0 | 0.0 | 0.00 | 0.00 | 0.00 | 93 | 1008.6 |
| 20260901083546 | 53 | 0 | 0.0 | 0.0 | 0.00 | 0.00 | 0.00 | 93 | 1008.7 |
| 20260901083101 | 53 | 0 | 0.0 | 0.0 | 0.00 | 0.00 | 0.00 | 92 | 1008.7 |
| 20260901082551 | 53 | 0 | 0.0 | 0.0 | 0.00 | 0.00 | 0.00 | 92 | 1008.6 |
| 20260901082047 | 53 | 0 | 0.0 | 0.0 | 0.00 | 0.00 | 0.00 | 92 | 1008.6 |
| 20260901081615 | 53 | 0 | 0.0 | 0.0 | 0.00 | 0.00 | 0.00 | 92 | 1008.7 |
| 20260901081049 | 53 | 0 | 0.0 | 0.0 | 0.00 | 0.00 | 0.00 | 92 | 1008.7 |
| 20260901080550 | 53 | 0 | 0.0 | 0.0 | 0.00 | 0.00 | 0.00 | 92 | 1008.7 |
| 20260901080107 | 53 | 0 | 0.0 | 0.0 | 0.00 | 0.00 | 0.00 | 92 | 1008.6 |
| 20260901075545 | 54 | 0 | 0.0 | 0.0 | 0.00 | 0.00 | 0.00 | 91 | 1008.6 |
| 20260901075049 | 54 | 0 | 0.0 | 0.0 | 0.00 | 0.00 | 0.00 | 91 | 1008.7 |
| 20260901074601 | 54 | 0 | 0.0 | 0.0 | 0.00 | 0.00 | 0.00 | 91 | 1008.7 |
| 20260901074046 | 54 | 0 | 0.0 | 0.0 | 0.00 | 0.00 | 0.00 | 91 | 1008.6 |
| 20260901073546 | 54 | 0 | 0.0 | 0.0 | 0.00 | 0.00 | 0.00 | 91 | 1008.5 |
| 20260901073114 | 54 | 0 | 0.0 | 0.0 | 0.00 | 0.00 | 0.00 | 91 | 1008.6 |
| 20260901072547 | 54 | 0 | 0.0 | 0.0 | 0.00 | 0.00 | 0.00 | 90 | 1008.6 |
| 20260901072047 | 55 | 0 | 0.0 | 0.0 | 0.00 | 0.00 | 0.00 | 90 | 1008.6 |
| 20260901071604 | 55 | 0 | 0.0 | 0.0 | 0.00 | 0.00 | 0.00 | 90 | 1008.7 |
| 20260901071047 | 55 | 0 | 0.0 | 0.0 | 0.00 | 0.00 | 0.00 | 90 | 1008.7 |
| 20260901070546 | 55 | 0 | 0.0 | 0.0 | 0.00 | 0.00 | 0.00 | 90 | 1008.6 |
| 20260901070103 | 55 | 0 | 0.0 | 0.0 | 0.00 | 0.00 | 0.00 | 89 | 1008.7 |
| 20260901065546 | 55 | 0 | 0.0 | 0.0 | 0.00 | 0.00 | 0.00 | 89 | 1008.6 |
| 20260901065048 | 55 | 0 | 0.0 | 0.0 | 0.00 | 0.00 | 0.00 | 89 | 1008.6 |
| 20260901064602 | 56 | 0 | 0.0 | 0.0 | 0.00 | 0.00 | 0.00 | 89 | 1008.6 |
| 20260901064047 | 56 | 0 | 0.0 | 0.0 | 0.00 | 0.00 | 0.00 | 88 | 1008.5 |
| 20260901063546 | 56 | 0 | 0.0 | 0.0 | 0.00 | 0.00 | 0.00 | 88 | 1008.5 |